Weather History for KTBX - October, 2012

Change the Weather History Date:

Friday, October 5, 2012

  Actual Average (KWRL) Record (KWRL)
Temperature  
Mean Temperature 26 °F 50 °F  
Max Temperature 30 °F 65 °F 87 °F (1993)
Min Temperature 23 °F 35 °F 22 °F (2013)
Degree Days  
Heating Degree Days 38 15  
Month to date heating degree days 72  
Since 1 July heating degree days 329  
Cooling Degree Days 0 0  
Month to date cooling degree days 0  
Year to date cooling degree days 535  
Moisture  
Dew Point 26 °F    
Average Humidity 96    
Maximum Humidity 100    
Minimum Humidity 93    
Precipitation  
Precipitation 0.00 in 0.03 in 1.15 in (1972)
Month to date precipitation 0.16  
Year to date precipitation 6.46  
Sea Level Pressure  
Sea Level Pressure 30.30 in    
Wind  
Wind Speed 15 mph ()    
Max Wind Speed 36 mph    
Max Gust Speed 40 mph    
T = Trace of Precipitation, MM = Missing Value Source: Averaged Metar Reports

Daily Weather History Graph

Daily Weather History Graph

Search for Another Location

Airport or City:

Trip Planner

Search our weather history database for the weather conditions in past years. The results will help you decide how hot, cold, wet, or windy it might be!

Date:

Astronomy

Oct. 05, 2012 Rise Set
Actual Time 7:15 AM MDT 6:45 PM MDT
Civil Twilight 6:47 AM MDT 7:14 PM MDT
Nautical Twilight 6:14 AM MDT 7:47 PM MDT
Astronomical Twilight 5:40 AM MDT 8:20 PM MDT
Moon 10:03 PM MDT (10/5) 12:34 PM MDT (10/5)
Length of Visible Light 12h 27m
Length of Day
11h 30m
Waning Gibbous, 73% of the Moon is Illuminated
Oct 5
Waning Gibbous
Oct 8
Last Quarter
Oct 15
New
Oct 21
First Quarter
Oct 29
Full

Hourly Weather History & Observations

Time (MDT) Temp. Windchill Dew Point Humidity Pressure Visibility Wind Dir Wind Speed Gust Speed Precip Events Conditions
12:15 AM 28.4 °F 15.8 °F 26.6 °F 93% 30.30 in - NNW 18.4 mph - N/A   Overcast
12:35 AM 28.4 °F 16.2 °F 26.6 °F 93% 30.30 in - NNW 17.3 mph - N/A   Overcast
12:55 AM 28.4 °F 15.8 °F 26.6 °F 93% 30.29 in - NW 18.4 mph - N/A   Overcast
1:15 AM 28.4 °F 16.2 °F 26.6 °F 93% 30.29 in - NNW 17.3 mph - N/A   Overcast
1:35 AM 28.4 °F 16.6 °F 26.6 °F 93% 30.29 in - NNW 16.1 mph - N/A   Overcast
1:55 AM 28.4 °F 17.5 °F 26.6 °F 93% 30.29 in - NW 13.8 mph 33.4 mph N/A   Overcast
2:15 AM 28.4 °F 16.6 °F 26.6 °F 93% 30.29 in - NW 16.1 mph - N/A   Overcast
2:35 AM 28.4 °F 17.0 °F 26.6 °F 93% 30.29 in - NNW 15.0 mph - N/A   Overcast
2:55 AM 28.4 °F 17.5 °F 26.6 °F 93% 30.28 in - NNW 13.8 mph - N/A   Overcast
3:15 AM 28.4 °F 17.5 °F 26.6 °F 93% 30.28 in - NNW 13.8 mph - N/A   Overcast
3:35 AM 28.4 °F 17.5 °F 26.6 °F 93% 30.28 in - NW 13.8 mph - N/A   Overcast
3:55 AM 28.4 °F 18.0 °F 26.6 °F 93% 30.28 in - NW 12.7 mph - N/A   Overcast
4:15 AM 28.4 °F 17.5 °F 26.6 °F 93% 30.28 in - NW 13.8 mph - N/A   Overcast
4:35 AM 26.6 °F 15.7 °F 26.6 °F 100% 30.28 in - NW 12.7 mph - N/A   Overcast
4:55 AM 26.6 °F 16.8 °F 26.6 °F 100% 30.28 in - NW 10.4 mph - N/A   Overcast
5:15 AM 28.4 °F 18.5 °F 26.6 °F 93% 30.28 in - NW 11.5 mph - N/A   Overcast
5:35 AM 26.6 °F 15.7 °F 26.6 °F 100% 30.28 in - NW 12.7 mph - N/A   Overcast
5:55 AM 26.6 °F 15.7 °F 26.6 °F 100% 30.28 in - NW 12.7 mph - N/A   Overcast
6:15 AM 26.6 °F 16.2 °F 26.6 °F 100% 30.28 in - NW 11.5 mph - N/A   Overcast
6:35 AM 26.6 °F 16.2 °F 26.6 °F 100% 30.28 in - NW 11.5 mph - N/A   Overcast
6:55 AM 26.6 °F 16.8 °F 26.6 °F 100% 30.29 in - NW 10.4 mph - N/A   Overcast
7:15 AM 26.6 °F 17.5 °F 26.6 °F 100% 30.30 in - WNW 9.2 mph - N/A   Overcast
7:35 AM 26.6 °F 16.8 °F 26.6 °F 100% 30.30 in - WNW 10.4 mph - N/A   Overcast
7:55 AM 26.6 °F 16.2 °F 26.6 °F 100% 30.30 in - NW 11.5 mph - N/A   Overcast
8:15 AM 26.6 °F 16.8 °F 24.8 °F 93% 30.31 in - WNW 10.4 mph - N/A   Overcast
8:55 AM 26.6 °F 17.5 °F 26.6 °F 100% 30.32 in - WNW 9.2 mph - N/A   Overcast
9:15 AM 26.6 °F 16.2 °F 26.6 °F 100% 30.32 in - NW 11.5 mph - N/A   Overcast
9:35 AM 26.6 °F 18.2 °F 24.8 °F 93% 30.32 in - NW 8.1 mph - N/A   Overcast
9:55 AM 26.6 °F 16.8 °F 26.6 °F 100% 30.33 in - NW 10.4 mph - N/A   Overcast
10:15 AM 26.6 °F 19.1 °F 24.8 °F 93% 30.33 in - NW 6.9 mph - N/A   Overcast
10:35 AM 26.6 °F 18.2 °F 26.6 °F 100% 30.33 in - NW 8.1 mph - N/A   Overcast
10:55 AM 26.6 °F 15.7 °F 26.6 °F 100% 30.33 in - NW 12.7 mph - N/A   Overcast
11:15 AM 26.6 °F 15.7 °F 26.6 °F 100% 30.33 in - NW 12.7 mph - N/A   Overcast
11:35 AM 26.6 °F 15.2 °F 26.6 °F 100% 30.33 in - NW 13.8 mph - N/A   Overcast
11:55 AM 26.6 °F 13.8 °F 26.6 °F 100% 30.32 in - NW 17.3 mph - N/A   Overcast
12:15 PM - - - N/A% 30.33 in - NW 15.0 mph - N/A   Overcast
12:35 PM - - - N/A% 30.33 in - NW 13.8 mph - N/A   Overcast
1:15 PM - - - N/A% 30.32 in - NNW 16.1 mph - N/A   Overcast
1:35 PM - - - N/A% 30.31 in - NNW 16.1 mph - N/A   Mostly Cloudy
1:55 PM - - - N/A% 30.31 in - NNW 13.8 mph - N/A   Unknown
2:15 PM - - - N/A% 30.31 in - NNW 13.8 mph - N/A   Unknown
2:35 PM - - - N/A% 30.30 in - NW 15.0 mph - N/A   Overcast
3:15 PM 30.2 °F 19.3 °F 28.4 °F 93% 30.30 in - North 15.0 mph - N/A   Overcast
3:35 PM 30.2 °F 18.5 °F 28.4 °F 93% 30.29 in - NNW 17.3 mph - N/A   Overcast
3:55 PM 30.2 °F 18.9 °F 28.4 °F 93% 30.28 in - NNW 16.1 mph - N/A   Overcast
4:15 PM 28.4 °F 18.0 °F 28.4 °F 100% 30.29 in - NNW 12.7 mph - N/A   Unknown
4:35 PM 28.4 °F 19.7 °F 28.4 °F 100% 30.30 in - NNW 9.2 mph - N/A   Unknown
4:55 PM 28.4 °F 19.1 °F 28.4 °F 100% 30.30 in - NW 10.4 mph - N/A   Overcast
5:15 PM 28.4 °F 17.0 °F 28.4 °F 100% 30.30 in - NNW 15.0 mph - N/A   Overcast
5:35 PM 28.4 °F 16.2 °F 26.6 °F 93% 30.29 in - NW 17.3 mph - N/A   Unknown
5:55 PM 28.4 °F 16.2 °F 28.4 °F 100% 30.28 in - NNW 17.3 mph - N/A   Unknown
6:15 PM 28.4 °F 15.8 °F 28.4 °F 100% 30.29 in - NW 18.4 mph - N/A   Unknown
6:35 PM 28.4 °F 14.7 °F 28.4 °F 100% 30.29 in - NW 21.9 mph - N/A   Unknown
6:55 PM 28.4 °F 14.1 °F 28.4 °F 100% 30.30 in - NW 24.2 mph - N/A   Overcast
7:15 PM 28.4 °F 14.1 °F 26.6 °F 93% 30.30 in - NW 24.2 mph - N/A   Overcast
7:35 PM 28.4 °F 13.8 °F 26.6 °F 93% 30.30 in - NW 25.3 mph - N/A   Overcast
7:55 PM 26.6 °F 9.8 °F 26.6 °F 100% 30.30 in - NW 32.2 mph - N/A   Overcast
8:15 PM 26.6 °F 9.8 °F 24.8 °F 93% 30.30 in - WNW 32.2 mph - N/A   Overcast
8:35 PM 26.6 °F 9.1 °F 24.8 °F 93% 30.31 in - NW 35.7 mph - N/A   Overcast
8:55 PM 26.6 °F - 24.8 °F 93% 30.31 in - North - - N/A   Overcast
9:15 PM 26.6 °F - 24.8 °F 93% 30.31 in - North - - N/A   Overcast
9:35 PM 23.0 °F - 23.0 °F 100% 30.30 in - North - - N/A   Overcast
10:15 PM 23.0 °F - 23.0 °F 100% 30.32 in - North - - N/A   Overcast
10:35 PM 24.8 °F 9.0 °F 23.0 °F 93% 30.31 in - NW 25.3 mph - N/A   Overcast
10:55 PM 24.8 °F 7.1 °F 23.0 °F 93% 30.30 in - NW 33.4 mph 38.0 mph N/A   Overcast
11:15 PM 24.8 °F 7.1 °F 23.0 °F 93% 30.31 in - NW 33.4 mph - N/A   Overcast
11:35 PM 23.0 °F 4.1 °F 23.0 °F 100% 30.30 in - NW 35.7 mph 40.3 mph N/A   Overcast
11:55 PM 23.0 °F 4.4 °F 21.2 °F 93% 30.31 in - NW 34.5 mph - N/A   Overcast